| time (UTC) | temp F | wind direction | speed MPH | gust MPH | rain 1hr in | rain 24hr in | rain mn in | humidity % | barometer mb |
| 20260509223831 | 84 | 124 | 6.0 | 9.0 | 0.00 | 0.00 | 0.00 | 41 | 1008.2 |
| 20260509223327 | 84 | 71 | 2.0 | 6.0 | 0.00 | 0.00 | 0.00 | 41 | 1008.3 |
| 20260509222825 | 85 | 156 | 5.0 | 8.0 | 0.00 | 0.00 | 0.00 | 41 | 1008.6 |
| 20260509222320 | 85 | 224 | 7.0 | 8.0 | 0.00 | 0.00 | 0.00 | 41 | 1008.5 |
| 20260509221816 | 85 | 71 | 0.0 | 6.0 | 0.00 | 0.00 | 0.00 | 41 | 1008.9 |
| 20260509221314 | 84 | 162 | 5.0 | 8.0 | 0.00 | 0.00 | 0.00 | 42 | 1008.5 |
| 20260509220814 | 84 | 165 | 5.0 | 7.0 | 0.00 | 0.00 | 0.00 | 41 | 1008.6 |
| 20260509220310 | 84 | 35 | 1.0 | 6.0 | 0.00 | 0.00 | 0.00 | 41 | 1008.6 |
| 20260509215806 | 84 | 74 | 1.0 | 9.0 | 0.00 | 0.00 | 0.00 | 44 | 1008.5 |
| 20260509215305 | 86 | 183 | 6.0 | 8.0 | 0.00 | 0.00 | 0.00 | 40 | 1008.8 |
| 20260509214759 | 84 | 209 | 3.0 | 10.0 | 0.00 | 0.00 | 0.00 | 41 | 1008.5 |
| 20260509214257 | 85 | 140 | 5.0 | 9.0 | 0.00 | 0.00 | 0.00 | 42 | 1008.5 |
| 20260509213754 | 85 | 148 | 3.0 | 6.0 | 0.00 | 0.00 | 0.00 | 41 | 1009.0 |
| 20260509213249 | 84 | 310 | 0.0 | 3.0 | 0.00 | 0.00 | 0.00 | 42 | 1008.8 |
| 20260509212747 | 85 | 146 | 3.0 | 6.0 | 0.00 | 0.00 | 0.00 | 41 | 1009.0 |
| 20260509212244 | 85 | 255 | 2.0 | 2.0 | 0.00 | 0.00 | 0.00 | 41 | 1008.9 |
| 20260509211739 | 85 | 202 | 5.0 | 8.0 | 0.00 | 0.00 | 0.00 | 41 | 1009.1 |
| 20260509211236 | 85 | 125 | 5.0 | 11.0 | 0.00 | 0.00 | 0.00 | 42 | 1009.2 |
| 20260509210732 | 84 | 75 | 1.0 | 5.0 | 0.00 | 0.00 | 0.00 | 39 | 1009.3 |
| 20260509210231 | 84 | 179 | 1.0 | 6.0 | 0.00 | 0.00 | 0.00 | 41 | 1009.3 |
| 20260509205730 | 84 | 187 | 4.0 | 8.0 | 0.00 | 0.00 | 0.00 | 41 | 1009.2 |
| 20260509205230 | 84 | 235 | 1.0 | 6.0 | 0.00 | 0.00 | 0.00 | 40 | 1009.2 |
| 20260509204726 | 84 | 183 | 6.0 | 8.0 | 0.00 | 0.00 | 0.00 | 40 | 1009.2 |
| 20260509204223 | 84 | 179 | 5.0 | 9.0 | 0.00 | 0.00 | 0.00 | 40 | 1009.4 |
| 20260509203718 | 83 | 81 | 2.0 | 8.0 | 0.00 | 0.00 | 0.00 | 41 | 1009.1 |
| 20260509203217 | 84 | 207 | 5.0 | 6.0 | 0.00 | 0.00 | 0.00 | 40 | 1009.3 |
| 20260509202712 | 85 | 339 | 0.0 | 1.0 | 0.00 | 0.00 | 0.00 | 39 | 1009.3 |
| 20260509202207 | 84 | 201 | 4.0 | 6.0 | 0.00 | 0.00 | 0.00 | 38 | 1009.3 |
| 20260509201703 | 84 | 315 | 0.0 | 8.0 | 0.00 | 0.00 | 0.00 | 39 | 1009.6 |
| 20260509201200 | 84 | 197 | 5.0 | 7.0 | 0.00 | 0.00 | 0.00 | 40 | 1009.6 |
| 20260509200656 | 84 | 161 | 6.0 | 7.0 | 0.00 | 0.00 | 0.00 | 41 | 1009.7 |
| 20260509200151 | 86 | 182 | 3.0 | 6.0 | 0.00 | 0.00 | 0.00 | 38 | 1009.8 |
| 20260509195647 | 85 | 313 | 1.0 | 2.0 | 0.00 | 0.00 | 0.00 | 36 | 1009.8 |
| 20260509195143 | 84 | 4 | 1.0 | 5.0 | 0.00 | 0.00 | 0.00 | 39 | 1009.9 |
| 20260509194643 | 84 | 233 | 2.0 | 3.0 | 0.00 | 0.00 | 0.00 | 39 | 1009.8 |
| 20260509194140 | 82 | 257 | 1.0 | 6.0 | 0.00 | 0.00 | 0.00 | 43 | 1010.0 |
| 20260509193636 | 84 | 169 | 4.0 | 5.0 | 0.00 | 0.00 | 0.00 | 40 | 1010.2 |
| 20260509193131 | 85 | 18 | 2.0 | 5.0 | 0.00 | 0.00 | 0.00 | 42 | 1010.1 |
| 20260509192628 | 85 | 284 | 1.0 | 2.0 | 0.00 | 0.00 | 0.00 | 36 | 1010.0 |
| 20260509192124 | 83 | 0 | 0.0 | 5.0 | 0.00 | 0.00 | 0.00 | 38 | 1010.0 |
| 20260509191623 | 82 | 340 | 3.0 | 3.0 | 0.00 | 0.00 | 0.00 | 43 | 1010.2 |
| 20260509191120 | 83 | 15 | 2.0 | 5.0 | 0.00 | 0.00 | 0.00 | 41 | 1010.4 |
| 20260509190617 | 82 | 209 | 1.0 | 2.0 | 0.00 | 0.00 | 0.00 | 39 | 1010.3 |
| 20260509190114 | 82 | 221 | 3.0 | 6.0 | 0.00 | 0.00 | 0.00 | 42 | 1010.4 |
| 20260509185612 | 81 | 353 | 2.0 | 3.0 | 0.00 | 0.00 | 0.00 | 42 | 1010.4 |
| 20260509185108 | 82 | 147 | 5.0 | 10.0 | 0.00 | 0.00 | 0.00 | 45 | 1010.5 |
| 20260509184606 | 82 | 185 | 4.0 | 8.0 | 0.00 | 0.00 | 0.00 | 43 | 1010.6 |
| 20260509184102 | 82 | 194 | 4.0 | 5.0 | 0.00 | 0.00 | 0.00 | 43 | 1010.5 |
| 20260509183558 | 82 | 126 | 1.0 | 5.0 | 0.00 | 0.00 | 0.00 | 44 | 1010.6 |
| 20260509183054 | 81 | 124 | 1.0 | 2.0 | 0.00 | 0.00 | 0.00 | 46 | 1010.7 |
| 20260509182550 | 81 | 250 | 1.0 | 3.0 | 0.00 | 0.00 | 0.00 | 44 | 1010.7 |
| 20260509182047 | 80 | 223 | 4.0 | 10.0 | 0.00 | 0.00 | 0.00 | 47 | 1010.8 |
| 20260509181546 | 81 | 153 | 4.0 | 7.0 | 0.00 | 0.00 | 0.00 | 46 | 1010.7 |
| 20260509181042 | 80 | 214 | 5.0 | 5.0 | 0.00 | 0.00 | 0.00 | 44 | 1010.7 |
| 20260509180538 | 81 | 210 | 3.0 | 8.0 | 0.00 | 0.00 | 0.00 | 42 | 1010.7 |
| 20260509180036 | 82 | 171 | 3.0 | 3.0 | 0.00 | 0.00 | 0.00 | 44 | 1011.0 |
| 20260509175531 | 80 | 328 | 1.0 | 2.0 | 0.00 | 0.00 | 0.00 | 39 | 1011.1 |
| 20260509175028 | 80 | 113 | 2.0 | 5.0 | 0.00 | 0.00 | 0.00 | 45 | 1011.1 |
| 20260509174525 | 81 | 142 | 4.0 | 6.0 | 0.00 | 0.00 | 0.00 | 43 | 1011.5 |
| 20260509174020 | 80 | 351 | 0.0 | 2.0 | 0.00 | 0.00 | 0.00 | 48 | 1011.5 |
| 20260509173514 | 80 | 220 | 4.0 | 6.0 | 0.00 | 0.00 | 0.00 | 50 | 1011.2 |
| 20260509173011 | 80 | 69 | 1.0 | 8.0 | 0.00 | 0.00 | 0.00 | 48 | 1011.6 |
| 20260509172508 | 79 | 215 | 3.0 | 7.0 | 0.00 | 0.00 | 0.00 | 49 | 1011.7 |
| 20260509172004 | 79 | 193 | 2.0 | 8.0 | 0.00 | 0.00 | 0.00 | 54 | 1011.9 |
| 20260509171459 | 79 | 173 | 3.0 | 7.0 | 0.00 | 0.00 | 0.00 | 53 | 1011.8 |
| 20260509170956 | 79 | 225 | 4.0 | 5.0 | 0.00 | 0.00 | 0.00 | 57 | 1012.1 |
| 20260509170452 | 78 | 44 | 1.0 | 5.0 | 0.00 | 0.00 | 0.00 | 55 | 1012.0 |
| 20260509165948 | 78 | 123 | 1.0 | 3.0 | 0.00 | 0.00 | 0.00 | 56 | 1012.0 |
| 20260509165447 | 78 | 260 | 1.0 | 5.0 | 0.00 | 0.00 | 0.00 | 58 | 1011.9 |
| 20260509164943 | 76 | 218 | 3.0 | 6.0 | 0.00 | 0.00 | 0.00 | 60 | 1011.9 |
| 20260509164439 | 76 | 199 | 7.0 | 9.0 | 0.00 | 0.00 | 0.00 | 60 | 1012.1 |
| 20260509163935 | 76 | 204 | 7.0 | 9.0 | 0.00 | 0.00 | 0.00 | 64 | 1012.0 |
| 20260509163433 | 77 | 119 | 2.0 | 5.0 | 0.00 | 0.00 | 0.00 | 66 | 1011.8 |
| 20260509162931 | 76 | 174 | 5.0 | 7.0 | 0.00 | 0.00 | 0.00 | 60 | 1012.2 |
| 20260509162431 | 75 | 190 | 5.0 | 6.0 | 0.00 | 0.00 | 0.00 | 64 | 1011.9 |
| 20260509161926 | 75 | 148 | 4.0 | 5.0 | 0.00 | 0.00 | 0.00 | 61 | 1012.1 |
| 20260509161423 | 75 | 242 | 3.0 | 8.0 | 0.00 | 0.00 | 0.00 | 68 | 1012.2 |
| 20260509160918 | 76 | 177 | 7.0 | 9.0 | 0.00 | 0.00 | 0.00 | 61 | 1012.2 |
| 20260509160414 | 75 | 126 | 3.0 | 9.0 | 0.00 | 0.00 | 0.00 | 67 | 1012.0 |
| 20260509155909 | 75 | 205 | 7.0 | 7.0 | 0.00 | 0.00 | 0.00 | 65 | 1012.1 |
| 20260509155406 | 74 | 196 | 5.0 | 9.0 | 0.00 | 0.00 | 0.00 | 70 | 1012.0 |
| 20260509154903 | 74 | 178 | 5.0 | 7.0 | 0.00 | 0.00 | 0.00 | 70 | 1012.0 |
| 20260509154359 | 73 | 190 | 5.0 | 7.0 | 0.00 | 0.00 | 0.00 | 74 | 1011.9 |
| 20260509153856 | 74 | 161 | 5.0 | 7.0 | 0.00 | 0.00 | 0.00 | 73 | 1011.9 |
| 20260509153353 | 72 | 152 | 4.0 | 7.0 | 0.00 | 0.00 | 0.00 | 73 | 1012.0 |
| 20260509152850 | 72 | 203 | 3.0 | 6.0 | 0.00 | 0.00 | 0.00 | 74 | 1011.9 |
| 20260509152346 | 73 | 156 | 6.0 | 9.0 | 0.00 | 0.00 | 0.00 | 76 | 1011.8 |
| 20260509151843 | 73 | 183 | 5.0 | 8.0 | 0.00 | 0.00 | 0.00 | 75 | 1011.9 |
| 20260509151339 | 73 | 142 | 3.0 | 8.0 | 0.00 | 0.00 | 0.00 | 72 | 1012.1 |
| 20260509150838 | 73 | 139 | 2.0 | 6.0 | 0.00 | 0.00 | 0.00 | 72 | 1012.0 |
| 20260509150335 | 73 | 169 | 4.0 | 6.0 | 0.00 | 0.00 | 0.00 | 73 | 1012.1 |
| 20260509145832 | 74 | 157 | 5.0 | 6.0 | 0.00 | 0.00 | 0.00 | 68 | 1011.9 |
| 20260509145327 | 74 | 139 | 4.0 | 6.0 | 0.00 | 0.00 | 0.00 | 67 | 1011.7 |
| 20260509144823 | 74 | 356 | 3.0 | 6.0 | 0.00 | 0.00 | 0.00 | 70 | 1011.5 |
| 20260509144321 | 73 | 333 | 1.0 | 5.0 | 0.00 | 0.00 | 0.00 | 74 | 1011.2 |
| 20260509143817 | 72 | 83 | 3.0 | 5.0 | 0.00 | 0.00 | 0.00 | 75 | 1011.6 |
| 20260509143315 | 71 | 56 | 1.0 | 6.0 | 0.00 | 0.00 | 0.00 | 81 | 1011.4 |
| 20260509142811 | 70 | 16 | 1.0 | 2.0 | 0.00 | 0.00 | 0.00 | 83 | 1011.2 |
| 20260509142307 | 68 | 18 | 1.0 | 1.0 | 0.00 | 0.00 | 0.00 | 85 | 1011.4 |
| 20260509141802 | 69 | 11 | 1.0 | 1.0 | 0.00 | 0.00 | 0.00 | 85 | 1011.4 |
| 20260509141300 | 69 | 1 | 2.0 | 2.0 | 0.00 | 0.00 | 0.00 | 84 | 1011.1 |
| 20260509140757 | 69 | 36 | 2.0 | 3.0 | 0.00 | 0.00 | 0.00 | 83 | 1011.5 |
| 20260509140254 | 69 | 15 | 2.0 | 3.0 | 0.00 | 0.00 | 0.00 | 84 | 1011.4 |
| 20260509135752 | 68 | 334 | 2.0 | 2.0 | 0.00 | 0.00 | 0.00 | 85 | 1011.4 |
| 20260509135249 | 68 | 63 | 2.0 | 3.0 | 0.00 | 0.00 | 0.00 | 86 | 1011.6 |
| 20260509134746 | 67 | 356 | 2.0 | 2.0 | 0.00 | 0.00 | 0.00 | 88 | 1011.6 |
| 20260509134243 | 67 | 14 | 1.0 | 1.0 | 0.00 | 0.00 | 0.00 | 86 | 1011.2 |
| 20260509133740 | 67 | 38 | 1.0 | 2.0 | 0.00 | 0.00 | 0.00 | 86 | 1011.4 |
| 20260509133237 | 66 | 10 | 0.0 | 1.0 | 0.00 | 0.00 | 0.00 | 87 | 1011.5 |
| 20260509132736 | 66 | 4 | 0.0 | 0.0 | 0.00 | 0.00 | 0.00 | 87 | 1011.2 |
| 20260509132234 | 66 | 22 | 1.0 | 1.0 | 0.00 | 0.00 | 0.00 | 86 | 1011.2 |
| 20260509131730 | 65 | 349 | 0.0 | 0.0 | 0.00 | 0.00 | 0.00 | 88 | 1011.1 |
| 20260509131227 | 65 | 339 | 1.0 | 1.0 | 0.00 | 0.00 | 0.00 | 89 | 1011.0 |
| 20260509130723 | 64 | 336 | 0.0 | 0.0 | 0.00 | 0.00 | 0.00 | 89 | 1011.1 |
| 20260509130219 | 63 | 13 | 0.0 | 0.0 | 0.00 | 0.00 | 0.00 | 91 | 1011.0 |
| 20260509125716 | 61 | 13 | 0.0 | 1.0 | 0.00 | 0.00 | 0.00 | 95 | 1010.8 |
| 20260509125213 | 61 | 342 | 1.0 | 1.0 | 0.00 | 0.00 | 0.00 | 96 | 1010.9 |
| 20260509124709 | 62 | 345 | 0.0 | 0.0 | 0.00 | 0.00 | 0.00 | 96 | 1010.5 |
| 20260509124206 | 60 | 337 | 0.0 | 0.0 | 0.00 | 0.00 | 0.00 | 98 | 1010.7 |
| 20260509123704 | 60 | 337 | 0.0 | 0.0 | 0.00 | 0.00 | 0.00 | 98 | 1010.8 |
| 20260509123201 | 59 | 337 | 0.0 | 0.0 | 0.00 | 0.00 | 0.00 | 98 | 1010.8 |
| 20260509122656 | 59 | 337 | 0.0 | 0.0 | 0.00 | 0.00 | 0.00 | 98 | 1010.6 |
| 20260509122153 | 58 | 337 | 0.0 | 0.0 | 0.00 | 0.00 | 0.00 | 98 | 1010.4 |
| 20260509121650 | 57 | 324 | 0.0 | 0.0 | 0.00 | 0.00 | 0.00 | 98 | 1010.6 |
| 20260509121148 | 57 | 324 | 0.0 | 0.0 | 0.00 | 0.00 | 0.00 | 98 | 1010.5 |
| 20260509120646 | 56 | 323 | 0.0 | 0.0 | 0.00 | 0.00 | 0.00 | 98 | 1010.4 |
| 20260509120144 | 56 | 230 | 1.0 | 1.0 | 0.00 | 0.00 | 0.00 | 98 | 1010.8 |
| 20260509115641 | 56 | 299 | 0.0 | 0.0 | 0.00 | 0.00 | 0.00 | 98 | 1010.3 |
| 20260509115138 | 56 | 314 | 0.0 | 0.0 | 0.00 | 0.00 | 0.00 | 98 | 1010.5 |
| 20260509114636 | 56 | 306 | 0.0 | 0.0 | 0.00 | 0.00 | 0.00 | 98 | 1010.5 |
| 20260509114135 | 56 | 336 | 0.0 | 0.0 | 0.00 | 0.00 | 0.00 | 98 | 1010.3 |
| 20260509113633 | 56 | 351 | 0.0 | 0.0 | 0.00 | 0.00 | 0.00 | 98 | 1010.2 |
| 20260509113130 | 57 | 351 | 0.0 | 0.0 | 0.00 | 0.00 | 0.00 | 98 | 1010.1 |
| 20260509112626 | 56 | 351 | 0.0 | 0.0 | 0.00 | 0.00 | 0.00 | 98 | 1009.9 |
| 20260509112124 | 56 | 354 | 0.0 | 0.0 | 0.00 | 0.00 | 0.00 | 98 | 1010.0 |
| 20260509111620 | 56 | 339 | 0.0 | 1.0 | 0.00 | 0.00 | 0.00 | 98 | 1009.9 |
| 20260509111117 | 56 | 347 | 0.0 | 0.0 | 0.00 | 0.00 | 0.00 | 98 | 1009.9 |
| 20260509110614 | 56 | 355 | 0.0 | 1.0 | 0.00 | 0.00 | 0.00 | 98 | 1009.9 |
| 20260509110112 | 56 | 1 | 1.0 | 1.0 | 0.00 | 0.00 | 0.00 | 98 | 1009.8 |
| 20260509105610 | 56 | 359 | 0.0 | 0.0 | 0.00 | 0.00 | 0.00 | 98 | 1010.0 |
| 20260509105107 | 57 | 356 | 0.0 | 1.0 | 0.00 | 0.00 | 0.00 | 98 | 1009.8 |
| 20260509104604 | 56 | 2 | 0.0 | 2.0 | 0.00 | 0.00 | 0.00 | 98 | 1009.9 |
| 20260509104100 | 56 | 355 | 0.0 | 1.0 | 0.00 | 0.00 | 0.00 | 98 | 1009.6 |
| 20260509103558 | 57 | 353 | 0.0 | 0.0 | 0.00 | 0.00 | 0.00 | 98 | 1009.9 |
| 20260509103056 | 56 | 339 | 0.0 | 0.0 | 0.00 | 0.00 | 0.00 | 98 | 1010.0 |
| 20260509102553 | 57 | 339 | 0.0 | 0.0 | 0.00 | 0.00 | 0.00 | 98 | 1010.1 |
| 20260509102050 | 57 | 339 | 0.0 | 0.0 | 0.00 | 0.00 | 0.00 | 98 | 1010.1 |
| 20260509101546 | 57 | 339 | 0.0 | 0.0 | 0.00 | 0.00 | 0.00 | 98 | 1010.3 |
| 20260509101043 | 57 | 348 | 0.0 | 0.0 | 0.00 | 0.00 | 0.00 | 98 | 1010.4 |
| 20260509100540 | 57 | 357 | 0.0 | 2.0 | 0.00 | 0.00 | 0.00 | 98 | 1010.4 |
| 20260509100038 | 58 | 345 | 1.0 | 1.0 | 0.00 | 0.00 | 0.00 | 98 | 1010.5 |
| 20260509095534 | 58 | 340 | 0.0 | 2.0 | 0.00 | 0.00 | 0.00 | 98 | 1010.7 |
| 20260509095032 | 58 | 325 | 1.0 | 2.0 | 0.00 | 0.00 | 0.00 | 98 | 1010.5 |
| 20260509094528 | 58 | 332 | 0.0 | 0.0 | 0.00 | 0.00 | 0.00 | 98 | 1010.6 |
| 20260509094025 | 58 | 336 | 0.0 | 1.0 | 0.00 | 0.00 | 0.00 | 98 | 1010.7 |
| 20260509093524 | 58 | 8 | 2.0 | 2.0 | 0.00 | 0.00 | 0.00 | 98 | 1010.4 |
| 20260509093021 | 58 | 357 | 0.0 | 0.0 | 0.00 | 0.00 | 0.00 | 98 | 1010.4 |
| 20260509092519 | 58 | 331 | 0.0 | 0.0 | 0.00 | 0.00 | 0.00 | 98 | 1010.4 |
| 20260509092017 | 58 | 332 | 0.0 | 0.0 | 0.00 | 0.00 | 0.00 | 98 | 1010.2 |
| 20260509091514 | 58 | 332 | 0.0 | 0.0 | 0.00 | 0.00 | 0.00 | 98 | 1010.4 |
| 20260509091010 | 58 | 336 | 0.0 | 0.0 | 0.00 | 0.00 | 0.00 | 98 | 1010.4 |
| 20260509090508 | 58 | 337 | 0.0 | 0.0 | 0.00 | 0.00 | 0.00 | 98 | 1010.3 |
| 20260509090006 | 58 | 336 | 0.0 | 0.0 | 0.00 | 0.00 | 0.00 | 98 | 1010.4 |
| 20260509085502 | 58 | 336 | 0.0 | 0.0 | 0.00 | 0.00 | 0.00 | 98 | 1010.4 |
| 20260509084958 | 59 | 336 | 0.0 | 0.0 | 0.00 | 0.00 | 0.00 | 98 | 1010.5 |
| 20260509084455 | 59 | 338 | 0.0 | 0.0 | 0.00 | 0.00 | 0.00 | 98 | 1010.4 |
| 20260509083953 | 59 | 338 | 0.0 | 0.0 | 0.00 | 0.00 | 0.00 | 98 | 1010.4 |
| 20260509083450 | 59 | 338 | 0.0 | 0.0 | 0.00 | 0.00 | 0.00 | 98 | 1010.6 |
| 20260509082946 | 59 | 340 | 0.0 | 0.0 | 0.00 | 0.00 | 0.00 | 98 | 1010.7 |
| 20260509082444 | 59 | 334 | 0.0 | 0.0 | 0.00 | 0.00 | 0.00 | 98 | 1010.6 |
| 20260509081941 | 59 | 342 | 0.0 | 0.0 | 0.00 | 0.00 | 0.00 | 98 | 1010.6 |
| 20260509081433 | 59 | 342 | 0.0 | 0.0 | 0.00 | 0.00 | 0.00 | 98 | 1010.7 |
| 20260509080930 | 59 | 342 | 0.0 | 0.0 | 0.00 | 0.00 | 0.00 | 98 | 1010.7 |
| 20260509080428 | 60 | 333 | 1.0 | 1.0 | 0.00 | 0.00 | 0.00 | 98 | 1010.6 |
| 20260509075926 | 60 | 333 | 0.0 | 0.0 | 0.00 | 0.00 | 0.00 | 98 | 1010.7 |
| 20260509075422 | 60 | 355 | 0.0 | 0.0 | 0.00 | 0.00 | 0.00 | 98 | 1011.0 |
| 20260509074920 | 60 | 335 | 0.0 | 0.0 | 0.00 | 0.00 | 0.00 | 98 | 1010.9 |
| 20260509074418 | 60 | 335 | 0.0 | 0.0 | 0.00 | 0.00 | 0.00 | 98 | 1011.0 |
| 20260509073914 | 60 | 334 | 0.0 | 0.0 | 0.00 | 0.00 | 0.00 | 98 | 1010.8 |
| 20260509073410 | 61 | 321 | 0.0 | 0.0 | 0.00 | 0.00 | 0.00 | 98 | 1010.7 |
| 20260509072907 | 61 | 321 | 1.0 | 1.0 | 0.00 | 0.00 | 0.00 | 98 | 1010.8 |
| 20260509072403 | 61 | 321 | 0.0 | 0.0 | 0.00 | 0.00 | 0.00 | 98 | 1010.8 |
| 20260509071900 | 61 | 321 | 0.0 | 0.0 | 0.00 | 0.00 | 0.00 | 97 | 1010.9 |
| 20260509071357 | 61 | 320 | 0.0 | 0.0 | 0.00 | 0.00 | 0.00 | 98 | 1011.1 |
| 20260509070855 | 61 | 291 | 1.0 | 1.0 | 0.00 | 0.00 | 0.00 | 98 | 1010.8 |
| 20260509070351 | 61 | 320 | 0.0 | 0.0 | 0.00 | 0.00 | 0.00 | 98 | 1011.1 |
| 20260509065847 | 61 | 331 | 0.0 | 1.0 | 0.00 | 0.00 | 0.00 | 98 | 1011.1 |
| 20260509065343 | 61 | 342 | 0.0 | 0.0 | 0.00 | 0.00 | 0.00 | 98 | 1010.8 |
| 20260509064839 | 61 | 331 | 0.0 | 0.0 | 0.00 | 0.00 | 0.00 | 98 | 1011.0 |
| 20260509064337 | 61 | 330 | 0.0 | 1.0 | 0.00 | 0.00 | 0.00 | 97 | 1011.4 |
| 20260509063835 | 62 | 329 | 0.0 | 1.0 | 0.00 | 0.00 | 0.00 | 97 | 1011.1 |
| 20260509063330 | 62 | 313 | 0.0 | 0.0 | 0.00 | 0.00 | 0.00 | 96 | 1011.0 |
| 20260509062828 | 62 | 313 | 0.0 | 0.0 | 0.00 | 0.00 | 0.00 | 96 | 1011.4 |
| 20260509062325 | 62 | 314 | 0.0 | 0.0 | 0.00 | 0.00 | 0.00 | 97 | 1011.5 |
| 20260509061822 | 62 | 327 | 0.0 | 0.0 | 0.00 | 0.00 | 0.00 | 97 | 1011.2 |
| 20260509061320 | 62 | 327 | 0.0 | 0.0 | 0.00 | 0.00 | 0.00 | 97 | 1011.4 |
| 20260509060817 | 62 | 313 | 0.0 | 0.0 | 0.00 | 0.00 | 0.00 | 96 | 1011.7 |
| 20260509060314 | 63 | 283 | 0.0 | 1.0 | 0.00 | 0.00 | 0.00 | 95 | 1011.5 |
| 20260509055809 | 62 | 290 | 0.0 | 0.0 | 0.00 | 0.00 | 0.00 | 96 | 1011.9 |
| 20260509055306 | 63 | 335 | 0.0 | 0.0 | 0.00 | 0.00 | 0.00 | 95 | 1011.6 |
| 20260509054802 | 63 | 0 | 0.0 | 0.0 | 0.00 | 0.00 | 0.00 | 94 | 1011.7 |
| 20260509054258 | 63 | 10 | 0.0 | 1.0 | 0.00 | 0.00 | 0.00 | 95 | 1011.6 |
| 20260509053757 | 63 | 353 | 0.0 | 0.0 | 0.00 | 0.00 | 0.00 | 95 | 1011.7 |
| 20260509053254 | 63 | 359 | 0.0 | 1.0 | 0.00 | 0.00 | 0.00 | 96 | 1011.5 |
| 20260509052752 | 63 | 358 | 0.0 | 0.0 | 0.00 | 0.00 | 0.00 | 96 | 1011.5 |
| 20260509052249 | 63 | 9 | 1.0 | 2.0 | 0.00 | 0.00 | 0.00 | 96 | 1011.4 |
| 20260509051746 | 63 | 26 | 2.0 | 3.0 | 0.00 | 0.00 | 0.00 | 96 | 1011.6 |
| 20260509051245 | 63 | 3 | 2.0 | 3.0 | 0.00 | 0.00 | 0.00 | 96 | 1011.1 |
| 20260509050741 | 63 | 1 | 2.0 | 2.0 | 0.00 | 0.00 | 0.00 | 96 | 1011.0 |
| 20260509050237 | 63 | 24 | 3.0 | 5.0 | 0.00 | 0.00 | 0.00 | 96 | 1011.1 |
| 20260509045735 | 63 | 357 | 1.0 | 6.0 | 0.00 | 0.19 | 0.19 | 96 | 1011.1 |
| 20260509045231 | 63 | 13 | 3.0 | 5.0 | 0.00 | 0.19 | 0.19 | 97 | 1010.7 |
| 20260509044729 | 62 | 63 | 2.0 | 6.0 | 0.00 | 0.19 | 0.19 | 97 | 1011.0 |
| 20260509044227 | 62 | 56 | 1.0 | 2.0 | 0.00 | 0.19 | 0.19 | 98 | 1010.8 |
| 20260509043722 | 63 | 352 | 1.0 | 1.0 | 0.00 | 0.19 | 0.19 | 97 | 1010.6 |
| 20260509043219 | 63 | 349 | 1.0 | 1.0 | 0.00 | 0.19 | 0.19 | 97 | 1010.7 |
| 20260509042715 | 63 | 18 | 1.0 | 1.0 | 0.00 | 0.19 | 0.19 | 97 | 1010.4 |
| 20260509042211 | 63 | 344 | 0.0 | 1.0 | 0.00 | 0.19 | 0.19 | 97 | 1010.5 |
| 20260509041708 | 63 | 6 | 2.0 | 2.0 | 0.00 | 0.19 | 0.19 | 96 | 1010.3 |
| 20260509041205 | 63 | 344 | 1.0 | 1.0 | 0.00 | 0.19 | 0.19 | 97 | 1010.3 |
| 20260509040704 | 64 | 329 | 0.0 | 1.0 | 0.00 | 0.19 | 0.19 | 96 | 1010.3 |
| 20260509040200 | 64 | 330 | 0.0 | 1.0 | 0.00 | 0.19 | 0.19 | 95 | 1010.5 |
| 20260509035657 | 65 | 310 | 0.0 | 0.0 | 0.00 | 0.19 | 0.19 | 94 | 1010.5 |
| 20260509035153 | 64 | 265 | 1.0 | 1.0 | 0.00 | 0.19 | 0.19 | 94 | 1010.4 |
| 20260509034651 | 64 | 314 | 0.0 | 0.0 | 0.00 | 0.19 | 0.19 | 93 | 1010.5 |
| 20260509034148 | 65 | 311 | 0.0 | 0.0 | 0.00 | 0.19 | 0.19 | 93 | 1010.4 |
| 20260509033645 | 65 | 314 | 0.0 | 0.0 | 0.00 | 0.19 | 0.19 | 92 | 1010.4 |
| 20260509033142 | 65 | 251 | 1.0 | 1.0 | 0.00 | 0.19 | 0.19 | 91 | 1010.3 |
| 20260509032639 | 65 | 247 | 2.0 | 2.0 | 0.00 | 0.19 | 0.19 | 91 | 1010.2 |
| 20260509032136 | 65 | 305 | 0.0 | 0.0 | 0.00 | 0.19 | 0.19 | 93 | 1010.2 |
| 20260509031634 | 65 | 325 | 0.0 | 0.0 | 0.00 | 0.19 | 0.19 | 93 | 1010.1 |
| 20260509031131 | 65 | 333 | 0.0 | 0.0 | 0.00 | 0.19 | 0.19 | 91 | 1010.0 |
| 20260509030630 | 66 | 309 | 0.0 | 0.0 | 0.00 | 0.19 | 0.19 | 90 | 1010.0 |
| 20260509030126 | 66 | 176 | 2.0 | 2.0 | 0.00 | 0.19 | 0.19 | 90 | 1009.6 |
| 20260509025622 | 65 | 218 | 1.0 | 2.0 | 0.00 | 0.19 | 0.19 | 92 | 1009.8 |
| 20260509025118 | 65 | 288 | 1.0 | 1.0 | 0.00 | 0.19 | 0.19 | 92 | 1009.7 |
| 20260509024614 | 66 | 349 | 1.0 | 1.0 | 0.00 | 0.19 | 0.19 | 90 | 1009.6 |
| 20260509024110 | 66 | 198 | 3.0 | 3.0 | 0.00 | 0.19 | 0.19 | 89 | 1009.2 |
| 20260509023608 | 65 | 351 | 0.0 | 1.0 | 0.00 | 0.19 | 0.19 | 91 | 1009.3 |
| 20260509023105 | 66 | 345 | 2.0 | 2.0 | 0.00 | 0.19 | 0.19 | 89 | 1009.2 |
| 20260509022601 | 66 | 251 | 2.0 | 2.0 | 0.00 | 0.19 | 0.19 | 91 | 1009.2 |
| 20260509022059 | 67 | 333 | 1.0 | 1.0 | 0.00 | 0.19 | 0.19 | 89 | 1009.1 |
| 20260509021556 | 67 | 279 | 0.0 | 1.0 | 0.00 | 0.19 | 0.19 | 86 | 1009.0 |
| 20260509021053 | 68 | 142 | 2.0 | 2.0 | 0.00 | 0.19 | 0.19 | 85 | 1009.2 |
| 20260509020551 | 68 | 248 | 2.0 | 2.0 | 0.00 | 0.19 | 0.19 | 85 | 1009.2 |
| 20260509020047 | 68 | 260 | 0.0 | 2.0 | 0.00 | 0.19 | 0.19 | 85 | 1009.2 |
| 20260509015546 | 68 | 195 | 1.0 | 2.0 | 0.00 | 0.19 | 0.19 | 84 | 1009.3 |
| 20260509015043 | 68 | 218 | 3.0 | 3.0 | 0.00 | 0.19 | 0.19 | 85 | 1009.0 |
| 20260509014539 | 68 | 234 | 3.0 | 3.0 | 0.00 | 0.19 | 0.19 | 85 | 1009.0 |
| 20260509014036 | 67 | 217 | 2.0 | 3.0 | 0.00 | 0.19 | 0.19 | 85 | 1008.9 |
| 20260509013533 | 67 | 177 | 2.0 | 2.0 | 0.00 | 0.19 | 0.19 | 88 | 1008.6 |
| 20260509013028 | 67 | 206 | 2.0 | 2.0 | 0.00 | 0.19 | 0.19 | 89 | 1008.5 |
| 20260509012525 | 67 | 108 | 2.0 | 2.0 | 0.00 | 0.19 | 0.19 | 88 | 1008.2 |
| 20260509012022 | 67 | 5 | 0.0 | 0.0 | 0.00 | 0.19 | 0.19 | 86 | 1008.1 |
| 20260509011520 | 67 | 125 | 3.0 | 3.0 | 0.00 | 0.19 | 0.19 | 87 | 1008.2 |
| 20260509011017 | 67 | 330 | 0.0 | 1.0 | 0.00 | 0.19 | 0.19 | 88 | 1008.3 |
| 20260509010516 | 67 | 14 | 1.0 | 2.0 | 0.00 | 0.19 | 0.19 | 86 | 1008.2 |
| 20260509010012 | 67 | 341 | 0.0 | 1.0 | 0.00 | 0.19 | 0.19 | 86 | 1007.8 |
| 20260509005510 | 67 | 352 | 1.0 | 5.0 | 0.00 | 0.19 | 0.19 | 84 | 1008.0 |
| 20260509005010 | 67 | 351 | 0.0 | 1.0 | 0.00 | 0.19 | 0.19 | 86 | 1007.9 |
| 20260509004507 | 67 | 129 | 3.0 | 5.0 | 0.00 | 0.19 | 0.19 | 86 | 1007.9 |
| 20260509004004 | 66 | 80 | 2.0 | 6.0 | 0.00 | 0.19 | 0.19 | 87 | 1007.6 |
| 20260509003503 | 66 | 200 | 3.0 | 5.0 | 0.00 | 0.19 | 0.19 | 88 | 1007.5 |
| 20260509002959 | 66 | 160 | 4.0 | 5.0 | 0.00 | 0.19 | 0.19 | 88 | 1007.4 |
| 20260509002457 | 66 | 178 | 3.0 | 6.0 | 0.00 | 0.19 | 0.19 | 90 | 1007.1 |
| 20260509001954 | 66 | 146 | 3.0 | 6.0 | 0.00 | 0.19 | 0.19 | 91 | 1007.0 |
| 20260509001450 | 67 | 143 | 5.0 | 8.0 | 0.00 | 0.19 | 0.19 | 89 | 1006.7 |
| 20260509000947 | 68 | 205 | 3.0 | 3.0 | 0.00 | 0.19 | 0.19 | 88 | 1006.8 |
| 20260509000447 | 68 | 267 | 0.0 | 3.0 | 0.00 | 0.19 | 0.19 | 90 | 1006.4 |
| 20260508235941 | 68 | 326 | 1.0 | 2.0 | 0.00 | 0.19 | 0.19 | 92 | 1006.7 |
| 20260508235439 | 68 | 271 | 1.0 | 5.0 | 0.00 | 0.19 | 0.19 | 89 | 1006.5 |
| 20260508234935 | 67 | 305 | 0.0 | 3.0 | 0.00 | 0.19 | 0.19 | 91 | 1006.5 |
| 20260508234432 | 67 | 273 | 4.0 | 5.0 | 0.00 | 0.19 | 0.19 | 90 | 1006.7 |
| 20260508233930 | 66 | 347 | 0.0 | 3.0 | 0.00 | 0.19 | 0.19 | 93 | 1006.6 |
| 20260508233429 | 65 | 194 | 4.0 | 8.0 | 0.07 | 0.19 | 0.19 | 88 | 1007.2 |
| 20260508232925 | 64 | 207 | 7.0 | 9.0 | 0.97 | 0.19 | 0.19 | 89 | 1007.5 |
| 20260508232422 | 63 | 284 | 2.0 | 9.0 | 0.97 | 0.16 | 0.16 | 89 | 1007.3 |
| 20260508231920 | 67 | 337 | 4.0 | 6.0 | 0.14 | 0.02 | 0.02 | 84 | 1007.7 |
| 20260508231417 | 68 | 348 | 2.0 | 6.0 | 0.00 | 0.00 | 0.00 | 78 | 1006.9 |
| 20260508230914 | 67 | 26 | 3.0 | 5.0 | 0.00 | 0.00 | 0.00 | 79 | 1006.9 |
| 20260508230410 | 67 | 347 | 3.0 | 5.0 | 0.00 | 0.00 | 0.00 | 81 | 1006.7 |
| 20260508225907 | 65 | 13 | 4.0 | 10.0 | 0.00 | 0.00 | 0.00 | 84 | 1007.1 |
| 20260508225404 | 65 | 330 | 3.0 | 13.0 | 0.00 | 0.00 | 0.00 | 82 | 1007.3 |
| 20260508224902 | 71 | 332 | 5.0 | 14.0 | 0.00 | 0.00 | 0.00 | 67 | 1007.4 |
| 20260508224359 | 81 | 353 | 5.0 | 6.0 | 0.00 | 0.00 | 0.00 | 51 | 1006.9 |